,,PA_Meas_PMT16A,,PR_Meas_QMR101_102,,RH_Meas_QMH101,,SR_Meas_QMS101,,TA_Meas_QMH101,,GenWind,,GenWind,
time,status,PA,status,PR,status,RH,status,SR,status,TA,status,DirAvg,status,SpdAvg,
2013-10-19, 00:00:05,VALID,918.634,VALID,0,VALID,96.6344,VALID,0,VALID,19.4883,VALID,155,VALID,0,
2013-10-19, 00:01:05,VALID,918.637,VALID,0,VALID,96.642,VALID,0,VALID,19.4688,VALID,155,VALID,0,
2013-10-19, 00:02:05,VALID,918.625,VALID,0,VALID,96.6268,VALID,0,VALID,19.4493,VALID,155,VALID,0,
2013-10-19, 00:03:05,VALID,918.604,VALID,0,VALID,96.642,VALID,0,VALID,19.4298,VALID,155,VALID,0,
2013-10-19, 00:04:05,VALID,918.606,VALID,0,VALID,96.6649,VALID,0,VALID,19.4313,VALID,155,VALID,0,
2013-10-19, 00:05:05,VALID,918.55,VALID,0,VALID,96.6649,VALID,0,VALID,19.4298,VALID,155,VALID,0,
2013-10-19, 00:06:05,VALID,918.518,VALID,0,VALID,96.6649,VALID,0,VALID,19.4508,VALID,155,VALID,0,
2013-10-19, 00:07:05,VALID,918.486,VALID,0,VALID,96.6802,VALID,0,VALID,19.4118,VALID,155,VALID,0,
2013-10-19, 00:08:05,VALID,918.495,VALID,0,VALID,96.6878,VALID,0,VALID,19.4118,VALID,155,VALID,0,
2013-10-19, 00:09:05,VALID,918.477,VALID,0,VALID,96.703,VALID,0,VALID,19.4118,VALID,155,VALID,0,
2013-10-19, 00:10:05,VALID,918.457,VALID,0,VALID,96.7259,VALID,0,VALID,19.4508,VALID,155,VALID,0,
2013-10-19, 00:11:05,VALID,918.478,VALID,0,VALID,96.7411,VALID,0,VALID,19.4493,VALID,155,VALID,0,
2013-10-19, 00:12:05,VALID,918.458,VALID,0,VALID,96.7335,VALID,0,VALID,19.4688,VALID,155,VALID,0,
2013-10-19, 00:13:05,VALID,918.456,VALID,0,VALID,96.764,VALID,0,VALID,19.4898,VALID,155,VALID,0,
2013-10-19, 00:14:05,VALID,918.473,VALID,0,VALID,96.7488,VALID,0,VALID,19.4703,VALID,155,VALID,0,
2013-10-19, 00:15:05,VALID,918.475,VALID,0,VALID,96.7793,VALID,0,VALID,19.4493,VALID,155,VALID,0,
2013-10-19, 00:16:05,VALID,918.444,VALID,0,VALID,96.7793,VALID,0,VALID,19.4493,VALID,155,VALID,0,
2013-10-19, 00:17:05,VALID,918.471,VALID,0,VALID,96.764,VALID,0,VALID,19.4703,VALID,155,VALID,0,
2013-10-19, 00:18:05,VALID,918.482,VALID,0,VALID,96.7716,VALID,0,VALID,19.4703,VALID,155,VALID,0,
2013-10-19, 00:19:05,VALID,918.509,VALID,0,VALID,96.7793,VALID,0,VALID,19.4688,VALID,155,VALID,0,
2013-10-19, 00:20:05,VALID,918.487,VALID,0,VALID,96.8098,VALID,0,VALID,19.5078,VALID,155,VALID,0,
2013-10-19, 00:21:05,VALID,918.497,VALID,0,VALID,96.7869,VALID,0,VALID,19.5678,VALID,155,VALID,0,
2013-10-19, 00:22:05,VALID,918.463,VALID,0,VALID,96.7945,VALID,0,VALID,19.5678,VALID,155,VALID,0,
2013-10-19, 00:23:05,VALID,918.457,VALID,0,VALID,96.8098,VALID,0,VALID,19.6068,VALID,155,VALID,0,
2013-10-19, 00:24:05,VALID,918.412,VALID,0,VALID,96.7945,VALID,0,VALID,19.5858,VALID,155,VALID,0,
2013-10-19, 00:25:05,VALID,918.386,VALID,0,VALID,96.8098,VALID,0,VALID,19.6068,VALID,155,VALID,0,
2013-10-19, 00:26:05,VALID,918.35,VALID,0,VALID,96.8098,VALID,0,VALID,19.6053,VALID,155,VALID,0,
2013-10-19, 00:27:05,VALID,918.354,VALID,0,VALID,96.8326,VALID,0,VALID,19.6263,VALID,155,VALID,0,
2013-10-19, 00:28:05,VALID,918.331,VALID,0,VALID,96.825,VALID,0,VALID,19.6263,VALID,155,VALID,0,
2013-10-19, 00:29:05,VALID,918.339,VALID,0,VALID,96.8174,VALID,0,VALID,19.6068,VALID,155,VALID,0,
2013-10-19, 00:30:05,VALID,918.339,VALID,0,VALID,96.8326,VALID,0,VALID,19.5873,VALID,155,VALID,0,
2013-10-19, 00:31:05,VALID,918.294,VALID,0,VALID,96.8555,VALID,0,VALID,19.5873,VALID,155,VALID,0,
2013-10-19, 00:32:05,VALID,918.29,VALID,0,VALID,96.8403,VALID,0,VALID,19.5483,VALID,155,VALID,0,
2013-10-19, 00:33:05,VALID,918.296,VALID,0,VALID,96.825,VALID,0,VALID,19.5678,VALID,155,VALID,0,
2013-10-19, 00:34:04,VALID,918.298,VALID,0,VALID,96.825,VALID,0,VALID,19.5273,VALID,155,VALID,0,
2013-10-19, 00:35:04,VALID,918.274,VALID,0,VALID,96.8174,VALID,0,VALID,19.5663,VALID,155,VALID,0,
2013-10-19, 00:36:04,VALID,918.283,VALID,0,VALID,96.8479,VALID,0,VALID,19.5873,VALID,176,VALID,0,
2013-10-19, 00:37:04,VALID,918.278,VALID,0,VALID,96.8479,VALID,0,VALID,19.6068,VALID,176,VALID,0,
2013-10-19, 00:38:04,VALID,918.268,VALID,0,VALID,96.8174,VALID,0,VALID,19.5873,VALID,176,VALID,0,
2013-10-19, 00:39:04,VALID,918.273,VALID,0,VALID,96.8555,VALID,0,VALID,19.5678,VALID,105,VALID,0,
2013-10-19, 00:40:04,VALID,918.22,VALID,0,VALID,96.8479,VALID,0,VALID,19.5873,VALID,105,VALID,0,
2013-10-19, 00:41:04,VALID,918.185,VALID,0,VALID,96.8403,VALID,0,VALID,19.5663,VALID,105,VALID,0,
2013-10-19, 00:42:04,VALID,918.166,VALID,0,VALID,96.8555,VALID,0,VALID,19.5873,VALID,105,VALID,0,
2013-10-19, 00:43:04,VALID,918.155,VALID,0,VALID,96.8707,VALID,0,VALID,19.5873,VALID,105,VALID,0,
2013-10-19, 00:44:04,VALID,918.093,VALID,0,VALID,96.8555,VALID,0,VALID,19.5873,VALID,105,VALID,0,
2013-10-19, 00:45:04,VALID,918.056,VALID,0,VALID,96.8479,VALID,0,VALID,19.5678,VALID,105,VALID,0,
2013-10-19, 00:46:04,VALID,918.032,VALID,0,VALID,96.8784,VALID,0,VALID,19.5678,VALID,105,VALID,0,
2013-10-19, 00:47:04,VALID,917.961,VALID,0,VALID,96.8555,VALID,0,VALID,19.5678,VALID,105,VALID,0,
2013-10-19, 00:48:04,VALID,917.965,VALID,0,VALID,96.8784,VALID,0,VALID,19.5678,VALID,119,VALID,0,
2013-10-19, 00:49:04,VALID,917.91,VALID,0,VALID,96.8784,VALID,0,VALID,19.5483,VALID,119,VALID,0,
2013-10-19, 00:50:04,VALID,917.901,VALID,0,VALID,96.8631,VALID,0,VALID,19.5078,VALID,119,VALID,0,
2013-10-19, 00:51:04,VALID,917.924,VALID,0,VALID,96.8631,VALID,0,VALID,19.4883,VALID,119,VALID,0,
2013-10-19, 00:52:04,VALID,917.874,VALID,0,VALID,96.886,VALID,0,VALID,19.4898,VALID,119,VALID,0,
2013-10-19, 00:53:04,VALID,917.849,VALID,0,VALID,96.8784,VALID,0,VALID,19.4703,VALID,119,VALID,0,
2013-10-19, 00:54:04,VALID,917.835,VALID,0,VALID,96.8631,VALID,0,VALID,19.4508,VALID,119,VALID,0,
2013-10-19, 00:55:04,VALID,917.816,VALID,0,VALID,96.8631,VALID,0,VALID,19.4313,VALID,119,VALID,0,
2013-10-19, 00:56:04,VALID,917.836,VALID,0,VALID,96.886,VALID,0,VALID,19.4508,VALID,119,VALID,0,
2013-10-19, 00:57:04,VALID,917.817,VALID,0,VALID,96.8707,VALID,0,VALID,19.4508,VALID,119,VALID,0,
2013-10-19, 00:58:04,VALID,917.815,VALID,0,VALID,96.886,VALID,0,VALID,19.3937,VALID,119,VALID,0,
2013-10-19, 00:59:04,VALID,917.793,VALID,0,VALID,96.8784,VALID,0,VALID,19.3143,VALID,119,VALID,0,
2013-10-19, 01:00:04,VALID,917.797,VALID,0,VALID,96.8936,VALID,0,VALID,19.2738,VALID,119,VALID,0,
2013-10-19, 01:01:04,VALID,917.782,VALID,0,VALID,96.8936,VALID,0,VALID,19.2753,VALID,119,VALID,0,
2013-10-19, 01:02:04,VALID,917.77,VALID,0,VALID,96.9089,VALID,0,VALID,19.2753,VALID,119,VALID,0,
2013-10-19, 01:03:04,VALID,917.766,VALID,0,VALID,96.9012,VALID,0,VALID,19.2948,VALID,119,VALID,0,
2013-10-19, 01:04:04,VALID,917.735,VALID,0,VALID,96.9012,VALID,0,VALID,19.3338,VALID,119,VALID,0,
2013-10-19, 01:05:04,VALID,917.722,VALID,0,VALID,96.9165,VALID,0,VALID,19.3533,VALID,119,VALID,0,
2013-10-19, 01:06:04,VALID,917.704,VALID,0,VALID,96.9089,VALID,0,VALID,19.4132,VALID,119,VALID,0,
2013-10-19, 01:07:04,VALID,917.676,VALID,0,VALID,96.9089,VALID,0,VALID,19.3923,VALID,119,VALID,0,
2013-10-19, 01:08:04,VALID,917.684,VALID,0,VALID,96.9317,VALID,0,VALID,19.3338,VALID,119,VALID,0,
2013-10-19, 01:09:04,VALID,917.667,VALID,0,VALID,96.9089,VALID,0,VALID,19.2948,VALID,119,VALID,0,
2013-10-19, 01:10:04,VALID,917.621,VALID,0,VALID,96.9241,VALID,0,VALID,19.2948,VALID,119,VALID,0,
2013-10-19, 01:11:04,VALID,917.578,VALID,0,VALID,96.9165,VALID,0,VALID,19.2933,VALID,119,VALID,0,
2013-10-19, 01:12:04,VALID,917.58,VALID,0,VALID,96.9394,VALID,0,VALID,19.3143,VALID,119,VALID,0,
2013-10-19, 01:13:04,VALID,917.582,VALID,0,VALID,96.9394,VALID,0,VALID,19.3143,VALID,119,VALID,0,
2013-10-19, 01:14:04,VALID,917.58,VALID,0,VALID,96.9165,VALID,0,VALID,19.2948,VALID,119,VALID,0,
2013-10-19, 01:15:04,VALID,917.564,VALID,0,VALID,96.9241,VALID,0,VALID,19.2753,VALID,119,VALID,0,
2013-10-19, 01:16:04,VALID,917.575,VALID,0,VALID,96.9317,VALID,0,VALID,19.2948,VALID,138,VALID,0,
2013-10-19, 01:17:04,VALID,917.553,VALID,0,VALID,96.947,VALID,0,VALID,19.2753,VALID,138,VALID,0,
2013-10-19, 01:18:04,VALID,917.545,VALID,0,VALID,96.9394,VALID,0,VALID,19.2753,VALID,138,VALID,0,
2013-10-19, 01:19:04,VALID,917.524,VALID,0,VALID,96.9546,VALID,0,VALID,19.2363,VALID,138,VALID,0,
2013-10-19, 01:20:04,VALID,917.489,VALID,0,VALID,96.947,VALID,0,VALID,19.2363,VALID,138,VALID,0,
2013-10-19, 01:21:04,VALID,917.469,VALID,0,VALID,96.947,VALID,0,VALID,19.2558,VALID,138,VALID,0,
2013-10-19, 01:22:04,VALID,917.479,VALID,0,VALID,96.9775,VALID,0,VALID,19.2753,VALID,138,VALID,0,
2013-10-19, 01:23:04,VALID,917.45,VALID,0,VALID,96.9546,VALID,0,VALID,19.2767,VALID,138,VALID,0,
2013-10-19, 01:24:04,VALID,917.428,VALID,0,VALID,96.9775,VALID,0,VALID,19.2363,VALID,137,VALID,0,
2013-10-19, 01:25:04,VALID,917.455,VALID,0,VALID,96.9698,VALID,0,VALID,19.2363,VALID,135,VALID,0,
2013-10-19, 01:26:04,VALID,917.392,VALID,0,VALID,96.9622,VALID,0,VALID,19.2182,VALID,135,VALID,0,
2013-10-19, 01:27:04,VALID,917.39,VALID,0,VALID,96.9775,VALID,0,VALID,19.1973,VALID,135,VALID,0,
2013-10-19, 01:28:04,VALID,917.349,VALID,0,VALID,96.9698,VALID,0,VALID,19.1778,VALID,135,VALID,0,
2013-10-19, 01:29:04,VALID,917.301,VALID,0,VALID,96.9927,VALID,0,VALID,19.1193,VALID,135,VALID,0,
2013-10-19, 01:30:04,VALID,917.274,VALID,0,VALID,96.9775,VALID,0,VALID,19.0803,VALID,87,VALID,0,
2013-10-19, 01:31:04,VALID,917.283,VALID,0,VALID,96.9775,VALID,0,VALID,19.0413,VALID,29,VALID,0,
2013-10-19, 01:32:04,VALID,917.25,VALID,0,VALID,96.9851,VALID,0,VALID,19.0608,VALID,29,VALID,0,
2013-10-19, 01:33:04,VALID,917.265,VALID,0,VALID,97.0003,VALID,0,VALID,19.1193,VALID,29,VALID,0,
2013-10-19, 01:34:04,VALID,917.272,VALID,0,VALID,96.9927,VALID,0,VALID,19.1583,VALID,29,VALID,0,
2013-10-19, 01:35:04,VALID,917.24,VALID,0,VALID,96.9927,VALID,0,VALID,19.1583,VALID,29,VALID,0,
2013-10-19, 01:36:04,VALID,917.265,VALID,0,VALID,96.9927,VALID,0,VALID,19.1778,VALID,29,VALID,0,
2013-10-19, 01:37:04,VALID,917.254,VALID,0,VALID,96.9927,VALID,0,VALID,19.1973,VALID,29,VALID,0,
2013-10-19, 01:38:04,VALID,917.218,VALID,0,VALID,97.008,VALID,0,VALID,19.1973,VALID,29,VALID,0,
2013-10-19, 01:39:04,VALID,917.189,VALID,0,VALID,97.008,VALID,0,VALID,19.1583,VALID,29,VALID,0,
2013-10-19, 01:40:04,VALID,917.174,VALID,0,VALID,96.9927,VALID,0,VALID,19.2168,VALID,61,VALID,0,
2013-10-19, 01:41:04,VALID,917.123,VALID,0,VALID,96.9927,VALID,0,VALID,19.2377,VALID,61,VALID,0,
2013-10-19, 01:42:04,VALID,917.064,VALID,0,VALID,97.0003,VALID,0,VALID,19.2363,VALID,61,VALID,0,
2013-10-19, 01:43:04,VALID,917.036,VALID,0,VALID,97.0156,VALID,0,VALID,19.2962,VALID,61,VALID,0,
2013-10-19, 01:44:04,VALID,917.02,VALID,0,VALID,97.0156,VALID,0,VALID,19.2363,VALID,61,VALID,0,
2013-10-19, 01:45:04,VALID,916.986,VALID,0,VALID,97.0308,VALID,0,VALID,19.1778,VALID,61,VALID,0,
2013-10-19, 01:46:04,VALID,917.009,VALID,0,VALID,97.0308,VALID,0,VALID,19.1388,VALID,61,VALID,0,
2013-10-19, 01:47:04,VALID,916.997,VALID,0,VALID,97.0156,VALID,0,VALID,19.1012,VALID,61,VALID,0,
2013-10-19, 01:48:04,VALID,916.992,VALID,0,VALID,97.0308,VALID,0,VALID,19.0608,VALID,61,VALID,0,
2013-10-19, 01:49:04,VALID,916.994,VALID,0,VALID,97.0156,VALID,0,VALID,19.0608,VALID,61,VALID,0,
2013-10-19, 01:50:04,VALID,916.946,VALID,0,VALID,97.0156,VALID,0,VALID,19.0608,VALID,61,VALID,0,
2013-10-19, 01:51:04,VALID,916.928,VALID,0,VALID,97.0232,VALID,0,VALID,19.0413,VALID,61,VALID,0,
2013-10-19, 01:52:04,VALID,916.891,VALID,0,VALID,97.0385,VALID,0,VALID,19.0218,VALID,61,VALID,0,
2013-10-19, 01:53:04,VALID,916.899,VALID,0,VALID,97.0385,VALID,0,VALID,18.9828,VALID,61,VALID,0,
2013-10-19, 01:54:04,VALID,916.888,VALID,0,VALID,97.0537,VALID,0,VALID,18.9828,VALID,61,VALID,0,
2013-10-19, 01:55:04,VALID,916.871,VALID,0,VALID,97.0537,VALID,0,VALID,19.0023,VALID,61,VALID,0,
2013-10-19, 01:56:04,VALID,916.85,VALID,0,VALID,97.0385,VALID,0.107441,VALID,19.0008,VALID,61,VALID,0,
2013-10-19, 01:57:04,VALID,916.861,VALID,0,VALID,97.0613,VALID,0,VALID,18.9814,VALID,61,VALID,0,
2013-10-19, 01:58:04,VALID,916.806,VALID,0,VALID,97.0537,VALID,0,VALID,18.9619,VALID,61,VALID,0,
2013-10-19, 01:59:04,VALID,916.824,VALID,0,VALID,97.0613,VALID,0.107441,VALID,18.9424,VALID,61,VALID,0,
2013-10-19, 02:00:04,VALID,916.818,VALID,0,VALID,97.069,VALID,0,VALID,18.9034,VALID,61,VALID,0,
2013-10-19, 02:01:04,VALID,916.811,VALID,0,VALID,97.069,VALID,0,VALID,18.8853,VALID,61,VALID,0,
2013-10-19, 02:02:04,VALID,916.827,VALID,0,VALID,97.0537,VALID,0,VALID,18.8644,VALID,61,VALID,0,
2013-10-19, 02:03:04,VALID,916.832,VALID,0,VALID,97.0537,VALID,0.107441,VALID,18.9229,VALID,113,VALID,0,
2013-10-19, 02:04:04,VALID,916.789,VALID,0,VALID,97.0766,VALID,0,VALID,18.9229,VALID,113,VALID,0,
2013-10-19, 02:05:04,VALID,916.815,VALID,0,VALID,97.0766,VALID,0,VALID,18.9243,VALID,113,VALID,0,
2013-10-19, 02:06:04,VALID,916.804,VALID,0,VALID,97.0842,VALID,0,VALID,18.9452,VALID,113,VALID,0,
2013-10-19, 02:07:04,VALID,916.726,VALID,0,VALID,97.0918,VALID,0,VALID,18.9243,VALID,113,VALID,0,
2013-10-19, 02:08:04,VALID,916.744,VALID,0,VALID,97.0918,VALID,0,VALID,18.9438,VALID,123,VALID,0,
2013-10-19, 02:09:04,VALID,916.749,VALID,0,VALID,97.0766,VALID,0,VALID,18.9438,VALID,122,VALID,0,
2013-10-19, 02:10:04,VALID,916.732,VALID,0,VALID,97.0918,VALID,0,VALID,18.9633,VALID,122,VALID,0,
2013-10-19, 02:11:04,VALID,916.738,VALID,0,VALID,97.0918,VALID,0,VALID,18.9438,VALID,122,VALID,0,
2013-10-19, 02:12:04,VALID,916.706,VALID,0,VALID,97.0918,VALID,0,VALID,18.9438,VALID,122,VALID,0,
2013-10-19, 02:13:04,VALID,916.75,VALID,0,VALID,97.1071,VALID,0,VALID,18.9438,VALID,116,VALID,0,
2013-10-19, 02:14:04,VALID,916.743,VALID,0,VALID,97.0918,VALID,0,VALID,18.9438,VALID,113,VALID,0,
2013-10-19, 02:15:04,VALID,916.717,VALID,0,VALID,97.0994,VALID,0,VALID,18.9438,VALID,113,VALID,0,
2013-10-19, 02:16:04,VALID,916.728,VALID,0,VALID,97.0918,VALID,0,VALID,18.9633,VALID,112,VALID,0,
2013-10-19, 02:17:04,VALID,916.717,VALID,0,VALID,97.0918,VALID,0,VALID,18.9243,VALID,112,VALID,0,
2013-10-19, 02:18:04,VALID,916.726,VALID,0,VALID,97.1071,VALID,0,VALID,18.9438,VALID,145,VALID,0,
2013-10-19, 02:19:04,VALID,916.697,VALID,0,VALID,97.0918,VALID,0,VALID,18.9633,VALID,141,VALID,0,
2013-10-19, 02:20:04,VALID,916.71,VALID,0,VALID,97.0994,VALID,0,VALID,18.9828,VALID,139,VALID,0,
2013-10-19, 02:21:04,VALID,916.726,VALID,0,VALID,97.0994,VALID,0,VALID,19.0218,VALID,139,VALID,0,
2013-10-19, 02:22:04,VALID,916.699,VALID,0,VALID,97.1071,VALID,0,VALID,19.0218,VALID,139,VALID,0,
2013-10-19, 02:23:04,VALID,916.703,VALID,0,VALID,97.1071,VALID,0,VALID,19.0608,VALID,140,VALID,0,
2013-10-19, 02:24:04,VALID,916.672,VALID,0,VALID,97.0994,VALID,0,VALID,19.0413,VALID,140,VALID,0,
2013-10-19, 02:25:04,VALID,916.664,VALID,0,VALID,97.1071,VALID,0,VALID,19.0413,VALID,139,VALID,0,
2013-10-19, 02:26:04,VALID,916.675,VALID,0,VALID,97.0994,VALID,0,VALID,18.9828,VALID,133,VALID,0,
2013-10-19, 02:27:04,VALID,916.689,VALID,0,VALID,97.1147,VALID,0,VALID,18.9828,VALID,128,VALID,0,
2013-10-19, 02:28:04,VALID,916.696,VALID,0,VALID,97.1071,VALID,0,VALID,18.9633,VALID,122,VALID,0,
2013-10-19, 02:29:04,VALID,916.711,VALID,0,VALID,97.1299,VALID,0,VALID,18.9229,VALID,120,VALID,0,
2013-10-19, 02:30:04,VALID,916.687,VALID,0,VALID,97.1147,VALID,0,VALID,18.9438,VALID,135,VALID,0,
2013-10-19, 02:31:04,VALID,916.697,VALID,0,VALID,97.1452,VALID,0,VALID,18.9438,VALID,132,VALID,0,
2013-10-19, 02:32:04,VALID,916.662,VALID,0,VALID,97.1223,VALID,0,VALID,18.9438,VALID,134,VALID,0,
2013-10-19, 02:33:04,VALID,916.653,VALID,0,VALID,97.1223,VALID,0,VALID,18.9452,VALID,134,VALID,0,
2013-10-19, 02:34:04,VALID,916.664,VALID,0,VALID,97.1223,VALID,0,VALID,18.8853,VALID,132,VALID,0,
2013-10-19, 02:35:04,VALID,916.632,VALID,0,VALID,97.1299,VALID,0,VALID,18.8658,VALID,130,VALID,0,
2013-10-19, 02:36:04,VALID,916.638,VALID,0,VALID,97.1376,VALID,0,VALID,18.9048,VALID,145,VALID,0,
2013-10-19, 02:37:04,VALID,916.622,VALID,0,VALID,97.1528,VALID,0,VALID,18.9438,VALID,145,VALID,0,
2013-10-19, 02:38:04,VALID,916.588,VALID,0,VALID,97.1376,VALID,0,VALID,18.9243,VALID,145,VALID,0,
2013-10-19, 02:39:04,VALID,916.579,VALID,0,VALID,97.1528,VALID,0,VALID,18.9048,VALID,139,VALID,0,
2013-10-19, 02:40:04,VALID,916.57,VALID,0,VALID,97.1528,VALID,0,VALID,18.9438,VALID,145,VALID,0,
2013-10-19, 02:41:04,VALID,916.543,VALID,0,VALID,97.1376,VALID,0,VALID,18.9633,VALID,145,VALID,0,
2013-10-19, 02:42:04,VALID,916.534,VALID,0,VALID,97.1604,VALID,0,VALID,18.9828,VALID,145,VALID,0,
2013-10-19, 02:43:04,VALID,916.516,VALID,0,VALID,97.1452,VALID,0,VALID,19.0023,VALID,164,VALID,0,
2013-10-19, 02:44:04,VALID,916.545,VALID,0,VALID,97.1376,VALID,0,VALID,19.0218,VALID,163,VALID,0,
2013-10-19, 02:45:04,VALID,916.517,VALID,0,VALID,97.1376,VALID,0,VALID,18.9828,VALID,163,VALID,0,
2013-10-19, 02:46:04,VALID,916.553,VALID,0,VALID,97.1452,VALID,0,VALID,19.0023,VALID,163,VALID,0,
2013-10-19, 02:47:04,VALID,916.548,VALID,0,VALID,97.1604,VALID,0,VALID,19.0023,VALID,163,VALID,0,
2013-10-19, 02:48:04,VALID,916.572,VALID,0,VALID,97.1452,VALID,0,VALID,19.0218,VALID,163,VALID,0,
2013-10-19, 02:49:04,VALID,916.576,VALID,0,VALID,97.1452,VALID,0,VALID,19.0023,VALID,163,VALID,0,
2013-10-19, 02:50:04,VALID,916.57,VALID,0,VALID,97.1452,VALID,0.107441,VALID,19.0203,VALID,163,VALID,0,
2013-10-19, 02:51:04,VALID,916.566,VALID,0,VALID,97.1604,VALID,0.107441,VALID,18.9409,VALID,163,VALID,0,
2013-10-19, 02:52:04,VALID,916.545,VALID,0,VALID,97.1604,VALID,0.107441,VALID,18.9229,VALID,163,VALID,0,
2013-10-19, 02:53:04,VALID,916.551,VALID,0,VALID,97.1604,VALID,0.107441,VALID,18.8824,VALID,163,VALID,0,
2013-10-19, 02:54:04,VALID,916.554,VALID,0,VALID,97.1528,VALID,0.107441,VALID,18.9034,VALID,163,VALID,0,
2013-10-19, 02:55:04,VALID,916.526,VALID,0,VALID,97.1757,VALID,0.107441,VALID,18.8839,VALID,163,VALID,0,
2013-10-19, 02:56:04,VALID,916.548,VALID,0,VALID,97.1681,VALID,0,VALID,18.8268,VALID,163,VALID,0,
2013-10-19, 02:57:04,VALID,916.529,VALID,0,VALID,97.1757,VALID,0.107441,VALID,18.7669,VALID,163,VALID,0,
2013-10-19, 02:58:04,VALID,916.576,VALID,0,VALID,97.1833,VALID,0.107441,VALID,18.7488,VALID,155,VALID,0,
2013-10-19, 02:59:04,VALID,916.576,VALID,0,VALID,97.1833,VALID,0.107441,VALID,18.6694,VALID,155,VALID,0,
2013-10-19, 03:00:04,VALID,916.57,VALID,0,VALID,97.1909,VALID,0,VALID,18.6694,VALID,155,VALID,0,
2013-10-19, 03:01:04,VALID,916.612,VALID,0,VALID,97.1909,VALID,0.107441,VALID,18.7084,VALID,155,VALID,0,
2013-10-19, 03:02:04,VALID,916.613,VALID,0,VALID,97.2062,VALID,0.107441,VALID,18.7279,VALID,155,VALID,0,
2013-10-19, 03:03:04,VALID,916.626,VALID,0,VALID,97.1909,VALID,0,VALID,18.6889,VALID,149,VALID,0,
2013-10-19, 03:04:04,VALID,916.625,VALID,0,VALID,97.2062,VALID,0,VALID,18.6889,VALID,122,VALID,0,
2013-10-19, 03:05:04,VALID,916.638,VALID,0,VALID,97.1909,VALID,0,VALID,18.6708,VALID,122,VALID,0,
2013-10-19, 03:06:04,VALID,916.644,VALID,0,VALID,97.2062,VALID,0,VALID,18.6708,VALID,122,VALID,0,
2013-10-19, 03:07:04,VALID,916.65,VALID,0,VALID,97.2214,VALID,0,VALID,18.7098,VALID,122,VALID,0,
2013-10-19, 03:08:04,VALID,916.673,VALID,0,VALID,97.2062,VALID,0,VALID,18.7098,VALID,122,VALID,0,
2013-10-19, 03:09:04,VALID,916.648,VALID,0,VALID,97.2062,VALID,0,VALID,18.6513,VALID,122,VALID,0,
2013-10-19, 03:10:04,VALID,916.648,VALID,0,VALID,97.2214,VALID,0,VALID,18.6708,VALID,122,VALID,0,
2013-10-19, 03:11:04,VALID,916.641,VALID,0,VALID,97.229,VALID,0,VALID,18.6708,VALID,122,VALID,0,
2013-10-19, 03:12:04,VALID,916.656,VALID,0,VALID,97.2214,VALID,0,VALID,18.6903,VALID,122,VALID,0,
2013-10-19, 03:13:04,VALID,916.639,VALID,0,VALID,97.2138,VALID,0,VALID,18.6903,VALID,122,VALID,0,
2013-10-19, 03:14:04,VALID,916.639,VALID,0,VALID,97.1986,VALID,0,VALID,18.6708,VALID,122,VALID,0,
2013-10-19, 03:15:04,VALID,916.641,VALID,0,VALID,97.2138,VALID,0,VALID,18.6903,VALID,122,VALID,0,
2013-10-19, 03:16:04,VALID,916.643,VALID,0,VALID,97.2214,VALID,0,VALID,18.7098,VALID,122,VALID,0,
2013-10-19, 03:17:04,VALID,916.638,VALID,0,VALID,97.2214,VALID,0,VALID,18.7113,VALID,122,VALID,0,
2013-10-19, 03:18:04,VALID,916.655,VALID,0,VALID,97.229,VALID,0,VALID,18.7098,VALID,122,VALID,0,
2013-10-19, 03:19:04,VALID,916.622,VALID,0,VALID,97.2138,VALID,0,VALID,18.6903,VALID,122,VALID,0,
2013-10-19, 03:20:04,VALID,916.633,VALID,0,VALID,97.229,VALID,0,VALID,18.7293,VALID,122,VALID,0,
2013-10-19, 03:21:04,VALID,916.625,VALID,0,VALID,97.229,VALID,0,VALID,18.7488,VALID,122,VALID,0,
2013-10-19, 03:22:04,VALID,916.623,VALID,0,VALID,97.2214,VALID,0,VALID,18.7293,VALID,122,VALID,0,
2013-10-19, 03:23:04,VALID,916.607,VALID,0,VALID,97.2214,VALID,0,VALID,18.7488,VALID,122,VALID,0,
2013-10-19, 03:24:04,VALID,916.601,VALID,0,VALID,97.2367,VALID,0,VALID,18.7293,VALID,122,VALID,0,
2013-10-19, 03:25:04,VALID,916.596,VALID,0,VALID,97.2214,VALID,0,VALID,18.7503,VALID,122,VALID,0,
2013-10-19, 03:26:04,VALID,916.579,VALID,0,VALID,97.2367,VALID,0,VALID,18.6903,VALID,122,VALID,0,
2013-10-19, 03:27:04,VALID,916.552,VALID,0,VALID,97.2367,VALID,0,VALID,18.6903,VALID,122,VALID,0,
2013-10-19, 03:28:04,VALID,916.589,VALID,0,VALID,97.2138,VALID,0,VALID,18.6723,VALID,122,VALID,0,
2013-10-19, 03:29:04,VALID,916.585,VALID,0,VALID,97.229,VALID,0,VALID,18.6319,VALID,122,VALID,0,
2013-10-19, 03:30:04,VALID,916.577,VALID,0,VALID,97.2367,VALID,0,VALID,18.6319,VALID,122,VALID,0,
2013-10-19, 03:31:04,VALID,916.583,VALID,0,VALID,97.2595,VALID,0,VALID,18.6319,VALID,122,VALID,0,
2013-10-19, 03:32:04,VALID,916.542,VALID,0,VALID,97.2443,VALID,0,VALID,18.6528,VALID,122,VALID,0,
2013-10-19, 03:33:04,VALID,916.544,VALID,0,VALID,97.2367,VALID,0,VALID,18.6319,VALID,122,VALID,0,
2013-10-19, 03:34:04,VALID,916.489,VALID,0,VALID,97.2443,VALID,0,VALID,18.6513,VALID,122,VALID,0,
2013-10-19, 03:35:04,VALID,916.506,VALID,0,VALID,97.229,VALID,0,VALID,18.6109,VALID,122,VALID,0,
2013-10-19, 03:36:04,VALID,916.535,VALID,0,VALID,97.2443,VALID,0.107441,VALID,18.6304,VALID,122,VALID,0,
2013-10-19, 03:37:04,VALID,916.517,VALID,0,VALID,97.229,VALID,0.107441,VALID,18.6109,VALID,122,VALID,0,
2013-10-19, 03:38:04,VALID,916.527,VALID,0,VALID,97.2595,VALID,0,VALID,18.6109,VALID,122,VALID,0,
2013-10-19, 03:39:04,VALID,916.527,VALID,0,VALID,97.2595,VALID,0.107441,VALID,18.5914,VALID,122,VALID,0,
2013-10-19, 03:40:04,VALID,916.557,VALID,0,VALID,97.2595,VALID,0.107441,VALID,18.6109,VALID,122,VALID,0,
2013-10-19, 03:41:04,VALID,916.525,VALID,0,VALID,97.2595,VALID,0,VALID,18.6319,VALID,122,VALID,0,
2013-10-19, 03:42:04,VALID,916.532,VALID,0,VALID,97.2367,VALID,0,VALID,18.6499,VALID,122,VALID,0,
2013-10-19, 03:43:04,VALID,916.553,VALID,0,VALID,97.2519,VALID,0.107441,VALID,18.6499,VALID,122,VALID,0,
2013-10-19, 03:44:04,VALID,916.569,VALID,0,VALID,97.2443,VALID,0,VALID,18.6304,VALID,122,VALID,0,
2013-10-19, 03:45:04,VALID,916.559,VALID,0,VALID,97.2519,VALID,0.107441,VALID,18.6304,VALID,122,VALID,0,
2013-10-19, 03:46:04,VALID,916.557,VALID,0,VALID,97.2519,VALID,0,VALID,18.7084,VALID,122,VALID,0,
2013-10-19, 03:47:04,VALID,916.588,VALID,0,VALID,97.2519,VALID,0.107441,VALID,18.7683,VALID,122,VALID,0,
2013-10-19, 03:48:04,VALID,916.572,VALID,0,VALID,97.2443,VALID,0.107441,VALID,18.7669,VALID,122,VALID,0,
2013-10-19, 03:49:04,VALID,916.619,VALID,0,VALID,97.2672,VALID,0.107441,VALID,18.7669,VALID,122,VALID,0,
2013-10-19, 03:50:04,VALID,916.616,VALID,0,VALID,97.2672,VALID,0,VALID,18.7488,VALID,122,VALID,0,
2013-10-19, 03:51:04,VALID,916.64,VALID,0,VALID,97.2672,VALID,0,VALID,18.7084,VALID,122,VALID,0,
2013-10-19, 03:52:04,VALID,916.649,VALID,0,VALID,97.2748,VALID,0,VALID,18.7488,VALID,122,VALID,0,
2013-10-19, 03:53:04,VALID,916.674,VALID,0,VALID,97.2672,VALID,0,VALID,18.6694,VALID,122,VALID,0,
2013-10-19, 03:54:04,VALID,916.675,VALID,0,VALID,97.2748,VALID,0.107441,VALID,18.6889,VALID,122,VALID,0,
2013-10-19, 03:55:04,VALID,916.69,VALID,0,VALID,97.2519,VALID,0,VALID,18.6889,VALID,122,VALID,0,
2013-10-19, 03:56:04,VALID,916.712,VALID,0,VALID,97.2672,VALID,0.107441,VALID,18.6499,VALID,122,VALID,0,
2013-10-19, 03:57:04,VALID,916.709,VALID,0,VALID,97.29,VALID,0.107441,VALID,18.6109,VALID,122,VALID,0,
2013-10-19, 03:58:04,VALID,916.711,VALID,0,VALID,97.2595,VALID,0,VALID,18.6304,VALID,122,VALID,0,